Ephrata, WA
on Monday, January 7, 2013

Monday
Previous Day Next Day
Daily Summary
 ActualAverageRecord
Temperature
Mean Temperature °F 27°F  
Max Temperature 31°F 33°F 52°F (1990)
Min Temperature 24°F 21°F -9°F (1974)
Degree Days
Heating Degree Days 37 38  
Month to date heating degree days 270 267  
Since 1 July heating degree days 2525 2853  
Cooling Degree Days 0 0  
Month to date cooling degree days 0 0  
Year to date cooling degree days 0 0  
Moisture
Dew Point 26°F   
Average Humidity 93    
Maximum Humidity 100    
Minimum Humidity 85    
Precipitation
Precipitation 0.03 in 0.04 in 0.28 in (1975)
Month to date precipitation 0.05 0.24  
Year to date precipitation 0.05 0.24  
Snow
Snow 0.00 in 0.20 in in ()
Snow Depth in   
Wind
Wind Speed 4 mph   
Max Wind Speed 31 mph   
Max Gust Speed 33 mph   
Visibility 5 miles   
Events Snow   

Key: T is trace of precipitation, MM is missing value
Source: NWS Daily Summary
Time(PST)TemperatureDew PointHumidity Pressure Visibility Wind DirectionWind SpeedGust SpeedPrecipitationEvents Conditions
12:53 AM 27.0°F 25.0°F 92% 30.09 in 5.0 miles NNE 4.6 mph - 0.00 in   Overcast
1:22 AM 26.6°F 24.8°F 93% 30.03 in 6.0 miles NNE 4.6 mph - N/A   Overcast
1:53 AM 27.0°F 25.0°F 92% 30.08 in 5.0 miles North 3.5 mph - N/A   Overcast
2:53 AM 27.0°F 25.0°F 92% 30.07 in 9.0 miles North 3.5 mph - N/A   Overcast
3:53 AM 27.0°F 24.1°F 89% 30.05 in 4.0 miles North 3.5 mph - 0.00 in Snow Light Snow
4:53 AM 27.0°F 25.0°F 92% 30.01 in 8.0 miles Calm Calm - 0.00 in   Overcast
5:53 AM 27.0°F 25.0°F 92% 29.99 in 4.0 miles Calm Calm - 0.00 in Snow Light Snow
6:34 AM 26.6°F 24.8°F 93% 29.93 in 2.0 miles Calm Calm - 0.00 in Snow Light Snow
6:53 AM 27.0°F 26.1°F 96% 29.96 in 3.0 miles Calm Calm - 0.00 in Snow Light Snow
7:25 AM 26.6°F 24.8°F 93% 29.93 in 2.5 miles WNW 3.5 mph - 0.01 in Snow Light Snow
7:33 AM 26.6°F 24.8°F 93% 29.92 in 3.0 miles West 3.5 mph - 0.01 in Snow Light Snow
7:40 AM 26.6°F 24.8°F 93% 29.92 in 2.0 miles WNW 3.5 mph - 0.01 in Snow Light Snow
7:49 AM 26.6°F 24.8°F 93% 29.91 in 1.5 miles Calm Calm - 0.01 in Snow Light Snow
7:53 AM 27.0°F 25.0°F 92% 29.96 in 1.2 miles NW 4.6 mph - 0.02 in Snow Light Snow
8:45 AM 26.6°F 26.6°F 100% 29.90 in 3.0 miles Calm Calm - 0.01 in Snow Light Snow
8:53 AM 27.0°F 26.1°F 96% 29.94 in 4.0 miles SSW 3.5 mph - 0.01 in   Overcast
9:53 AM 28.0°F 26.1°F 92% 29.93 in 6.0 miles Calm Calm - N/A   Overcast
10:43 AM 28.4°F 26.6°F 93% 29.88 in 10.0 miles Calm Calm - N/A   Overcast
10:53 AM 28.9°F 26.1°F 89% 29.93 in 9.0 miles Calm Calm - N/A   Overcast
11:53 AM 28.9°F 26.1°F 89% 29.90 in 9.0 miles South 3.5 mph - N/A   Overcast
12:15 PM 30.2°F 26.6°F 86% 29.83 in 10.0 miles South 4.6 mph - N/A   Overcast
12:53 PM 30.0°F 26.1°F 85% 29.87 in 9.0 miles South 5.8 mph - N/A   Overcast
1:01 PM 30.2°F 26.6°F 86% 29.83 in 10.0 miles South 5.8 mph - N/A   Overcast
1:53 PM 30.0°F 26.1°F 85% 29.88 in 9.0 miles South 4.6 mph - N/A   Overcast
2:03 PM 30.2°F 26.6°F 86% 29.84 in 10.0 miles SSE 3.5 mph - N/A   Overcast
2:45 PM 30.2°F 26.6°F 86% 29.85 in 8.0 miles NNE 23.0 mph 33.4 mph N/A   Squalls
2:53 PM 30.0°F 26.1°F 85% 29.90 in 8.0 miles SSE 3.5 mph 33.4 mph N/A   Mostly Cloudy
3:04 PM 28.4°F 26.6°F 93% 29.85 in 8.0 miles SSE 3.5 mph - N/A   Scattered Clouds
3:41 PM 30.2°F 26.6°F 86% 29.86 in 5.0 miles North - - N/A   Mostly Cloudy
3:53 PM 30.0°F 28.0°F 92% 29.91 in 4.0 miles Calm Calm - N/A   Overcast
4:53 PM 28.9°F 28.0°F 96% 29.91 in 5.0 miles NE 5.8 mph - N/A   Overcast
5:53 PM 28.9°F 27.0°F 92% 29.93 in 5.0 miles North 9.2 mph - N/A   Overcast
6:53 PM 28.9°F 27.0°F 92% 29.94 in 3.0 miles North 8.1 mph - N/A   Overcast
6:58 PM 28.4°F 26.6°F 93% 29.90 in 1.8 miles North 9.2 mph - N/A   Overcast
7:07 PM 28.4°F 26.6°F 93% 29.90 in 3.0 miles North 5.8 mph - N/A   Overcast
7:20 PM 28.4°F 26.6°F 93% 29.89 in 1.8 miles North 8.1 mph - N/A   Overcast
7:53 PM 28.9°F 28.0°F 96% 29.97 in 2.0 miles North 9.2 mph - N/A   Overcast
8:23 PM 28.4°F 26.6°F 93% 29.93 in 2.0 miles North 9.2 mph - N/A   Overcast
8:39 PM 28.4°F 26.6°F 93% 29.94 in 5.0 miles NNE 10.4 mph - N/A   Overcast
8:53 PM 28.9°F 28.0°F 96% 29.99 in 5.0 miles North 8.1 mph - N/A   Overcast
9:17 PM 28.4°F 26.6°F 93% 29.95 in 2.0 miles North 11.5 mph - N/A   Overcast
9:53 PM 27.0°F 26.1°F 96% 30.01 in 8.0 miles Variable 4.6 mph - N/A   Scattered Clouds
10:53 PM 25.0°F 23.0°F 92% 30.04 in 9.0 miles NNW 3.5 mph - N/A   Clear
11:53 PM 25.0°F 23.0°F 92% 30.08 in 8.0 miles SSE 6.9 mph - N/A   Clear
Moon Phase
Jan. 07 Jan. 11 Jan. 18 Jan. 26 Feb. 03
Sunrise:07:44 AM (PST) Moon Rise:03:09 AM (PST)1/7
Sunset:04:25 PM (PST) Moon Set:12:43 PM (PST)1/7

Copyright © 2014 The Weather Underground, Inc.